Regional Weather Roundup
Issued by NWS Northern Indiana

Home | Current Version | Previous Version | Text Only | Print | Product List | Glossary On
Versions: 1 2 3 4 5 6 7 8 9 10 11 12 13 14 15 16 17 18 19 20 21 22 23 24 25 26 27 28 29 30 31 32 33 34 35 36 37 38 39 40 41 42 43 44 45 46 47 48 49 50
862
ASUS43 KIWX 191610
RWRIWX

KIWX WEATHER ROUNDUP
NATIONAL WEATHER SERVICE NORTHERN INDIANA
1200 PM EDT MON AUG 19 2019

NOTE: "FAIR" INDICATES FEW OR NO CLOUDS BELOW 12,000 FEET WITH NO
SIGNIFICANT WEATHER AND/OR OBSTRUCTIONS TO VISIBILITY.

* THESE STATIONS ARE NOT UNDER NWS QUALITY CONTROL. THEY ALSO MAY NOT
  REPORT WEATHER SUCH AS PRECIPITATION OR FOG.

INZ001>027-191700-
NORTHERN INDIANA

CITY           SKY/WX    TMP DP  RH WIND       PRES   REMARKS
GARY*          MOSUNNY   82  70  65 CALM      30.03R
VALPARAISO     PTSUNNY   82  69  64 CALM      30.04R
MICHIGAN CITY* PTSUNNY  N/A N/A N/A SW5       30.04S
LAPORTE*       FAIR      81  69  68 CALM      30.05R
KNOX*          FAIR      79  66  65 CALM      30.04R
SOUTH BEND     FAIR      82  68  62 NW6       30.05R
ELKHART*       FAIR      81  66  61 W3        30.05R
GOSHEN         FAIR      79  69  71 S5        30.05S
MONTICELLO*    FAIR      80  71  74 E5        30.04R
LOGANSPORT*    FAIR      79  70  73 E3        30.06S
ROCHESTER*     FAIR      81  70  69 S3        30.05S
WARSAW*        FAIR      79  68  69 E3        30.06S
KENDALLVILLE*  FAIR      77  68  74 CALM      30.07S
AUBURN*        FAIR      77  70  78 CALM      30.08R
FORT WAYNE     PTSUNNY   80  70  71 E6        30.06S
HUNTINGTON*    FAIR      78  71  80 SW3       30.06S
PERU/GRISSOM   MOSUNNY   80  72  76 E3        30.05R

$$
INZ028>050-191700-
CENTRAL INDIANA

CITY           SKY/WX    TMP DP  RH WIND       PRES   REMARKS
LAFAYETTE      FAIR      81  71  71 SE3       30.03S
KOKOMO*        CLOUDY    78  71  79 CALM      30.07R
MUNCIE*        PTSUNNY   83  72  69 N3        30.06S
INDIANAPOLIS   FAIR      82  72  71 CALM      30.04S

$$
MIZ043>046-050>051-056>058-064>065-071>073-077>080-191700-
SOUTHWEST LOWER MICHIGAN

CITY           SKY/WX    TMP DP  RH WIND       PRES   REMARKS
BATTLE CREEK   PTSUNNY   78  66  66 S3        30.06S
BENTON HARBOR  FAIR      81  68  64 CALM      30.04R
COLDWATER*     FAIR      77  66  68 CALM      30.07R
HILLSDALE*     FAIR      76  65  67 CALM      30.07S
HOLLAND        CLOUDY    79  68  69 VRB5      30.04S
GRAND RAPIDS   PTSUNNY   78  64  61 CALM      30.04S
KALAMAZOO      CLOUDY    79  65  62 CALM      30.05R
STURGIS*       CLOUDY    77  69  76 CALM      30.05S
THREE RIVERS*  FAIR      80  68  67 CALM      30.06S

$$
OHZ001>008-015>018-024>025-191700-
NORTHWEST OHIO

CITY           SKY/WX    TMP DP  RH WIND       PRES   REMARKS
WAUSEON*       DRIZZLE   77  77 100 CALM      30.07R
DEFIANCE       CLOUDY    75  68  78 CALM      30.08R
FINDLAY        FAIR      82  69  64 CALM      30.06S
OTTAWA*        PTSUNNY   73  68  83 CALM      30.09S
TOLEDO EXPRESS FAIR      76  67  73 CALM      30.06S
LIMA           PTSUNNY   79  70  74 NW5       30.08R

$$
AND FOR LAKE MICHIGAN COASTAL AND OPEN LAKE BUOY OBSERVATIONS

STATION/POSITION TEMP    WIND        PRES    VSBY  WAVE
                 AIR SEA DIR/SP/G                  HT/PER
                 (F)     (DEG/KT/KT) (MB)    (MI)  (FT/S)
CALUMET HARBOR    76      50/  5/  7 1016.1
MICHIGAN CITY     75      10/  4/  4   N/A
BURNS HARBOR      77      CALM  /  2 1017.3R
SAINT JOSEPH      76     330/  3/  4 1017.6
SOUTH LAKE BUOY   72 74   70/  4/  4 1017.4R         1/ 3
4 MI NW BRIDGMAN  75 75  350/  2/  4 1016.9          0
MICHIGAN CITY     76 76   30/  4/  6   N/A           0

$$
&&




USA.gov is the U.S. government's official web portal to all federal, state and local government web resources and services.